Theta_e
313 314 316 318 320 321 323 325 325 328 330 332 332 331 332 333 334 335 334 334 333 332 331 330 330 331 328 326 326 326 324 323 324 321 320 321 321 320 321 322 321 319 317
310 312 313 314 314 316 319 322 324 326 327 330 332 333 332 333 334 335 335 334 334 334 333 332 331 331 330 329 327 326 324 324 325 318 317 312 315 319 320 321 320 320 319
310 311 312 313 316 316 317 318 321 325 327 329 330 332 333 334 332 333 333 334 334 334 334 333 333 332 332 330 330 328 325 321 324 323 317 311 308 312 317 316 315 315 314
312 312 312 313 314 315 317 318 320 322 324 328 328 329 329 328 330 331 332 333 334 333 333 334 334 333 333 332 331 330 327 326 321 323 321 320 317 311 309 315 315 314 314
312 311 312 313 314 317 318 318 317 317 319 322 325 328 328 330 331 330 329 330 332 334 333 333 334 334 334 333 333 331 329 328 325 323 320 319 317 317 313 309 312 315 316
312 311 313 314 313 317 317 318 317 317 320 321 320 321 324 326 326 327 327 328 329 331 333 333 333 334 334 333 333 333 331 328 327 326 324 318 314 311 310 309 311 311 314
311 310 311 312 312 313 316 314 314 313 314 317 321 323 324 324 325 326 326 326 328 329 330 331 331 332 333 334 333 332 332 331 328 326 324 323 320 318 315 312 311 310 313
311 310 311 312 312 312 313 313 313 312 313 314 314 316 321 324 325 326 327 327 328 330 332 331 331 331 332 332 332 332 331 331 330 328 325 322 321 320 318 315 310 309 312
309 309 310 311 311 312 313 314 314 314 314 313 314 314 314 315 317 320 323 325 327 328 330 331 331 332 331 331 331 329 329 330 329 327 325 322 322 322 321 319 317 312 308
308 309 310 311 312 312 313 314 314 313 314 314 314 314 314 314 314 315 315 317 319 321 323 325 327 329 330 330 330 329 329 328 328 327 325 323 322 322 321 320 319 318 314
308 309 310 311 312 313 313 313 313 313 313 313 313 314 314 314 314 313 314 314 315 315 316 318 320 322 324 326 327 327 328 327 326 327 325 324 323 321 321 321 319 318 316
308 309 310 310 311 311 312 312 312 312 313 313 313 313 314 314 313 313 314 314 313 314 314 314 315 316 318 321 322 323 324 324 325 325 325 323 322 321 321 320 318 317 317
308 309 310 310 310 311 311 311 311 311 312 312 312 312 313 313 313 313 314 314 314 314 314 314 313 313 315 316 319 321 322 323 324 324 324 323 323 321 320 320 318 317 316
306 307 308 308 308 309 310 310 310 311 311 311 311 310 311 311 311 312 313 313 313 313 313 314 314 313 313 314 315 317 319 321 322 323 323 323 323 322 321 320 318 317 315
306 306 305 306 306 307 309 310 311 310 310 309 309 310 310 310 310 310 311 311 312 312 313 313 313 314 314 313 314 316 317 318 319 321 322 322 319 315 319 320 319 318 315
303 304 304 305 306 307 309 308 308 307 308 306 306 308 307 307 307 307 307 308 308 309 310 311 312 312 312 310 309 310 313 314 316 316 319 320 313 314 313 314 314 318 315
303 302 303 305 307 308 307 305 304 303 303 303 304 304 303 303 303 305 305 305 305 306 306 308 308 309 311 309 309 308 311 311 313 314 316 316 318 315 319 315 312 312 312
302 303 305 305 305 305 303 301 301 301 301 300 301 301 301 300 301 302 302 302 303 304 304 305 306 307 309 307 307 306 309 311 312 313 314 315 315 317 317 316 315 312 313
303 303 303 302 301 300 299 297 296 297 297 297 296 296 296 297 297 297 297 298 300 301 302 303 304 305 306 306 305 306 308 308 309 312 313 313 315 314 311 313 311 309 301
302 300 299 298 298 296 295 294 293 293 294 294 294 295 295 295 295 295 296 297 297 299 301 301 303 303 304 304 304 304 305 303 305 307 309 308 310 311 310 312 310 299 293
298 297 296 295 294 294 293 291 291 290 291 291 292 292 293 293 293 293 295 294 294 296 298 298 299 299 299 301 303 303 302 302 302 303 303 307 308 309 309 309 309 303 294
295 294 292 291 291 291 290 288 287 288 288 289 289 290 291 291 291 291 292 292 292 292 294 295 295 296 297 298 300 301 302 301 298 298 300 303 304 305 306 306 309 304 296
291 290 289 288 288 288 287 285 286 287 287 287 287 288 288 289 289 288 289 290 290 290 290 291 291 291 294 295 298 299 299 298 296 298 299 300 301 302 304 305 302 297 291
287 287 286 284 284 285 285 285 286 286 286 285 285 286 286 287 287 288 289 289 288 288 289 288 289 290 291 293 294 294 294 295 295 296 297 299 299 301 301 299 296 290 290
285 285 284 283 283 284 284 285 285 285 284 284 284 285 285 285 285 286 286 287 288 289 287 288 290 288 289 292 294 294 292 292 295 296 297 296 294 291 290 291 287 287 288
284 283 283 283 283 283 283 284 285 285 284 283 284 284 284 284 284 285 285 289 290 291 291 292 291 291 293 295 294 293 293 295 296 297 296 293 290 289 290 285 285 286 286
Wind_Speed
9 7 8 12 14 14 14 16 15 15 12 10 10 10 10 9 10 10 15 15 13 14 14 11 13 12 12 12 12 11 12 9 9 8 8 8 10 12 11 10 10 12 12
12 11 11 9 9 12 13 13 13 13 11 9 8 9 10 9 9 9 12 15 16 16 14 15 13 14 11 14 14 13 10 10 9 9 7 7 8 11 12 10 9 12 9
16 15 14 12 9 7 9 10 12 12 11 12 9 8 9 8 7 9 10 13 15 15 16 16 14 13 12 11 13 13 14 10 10 13 8 4 8 4 3 5 5 8 7
15 15 15 15 14 12 9 8 9 9 9 11 11 14 11 11 11 10 9 10 15 16 16 16 16 15 11 14 12 12 13 12 11 8 12 15 9 5 5 4 8 8 8
14 16 15 15 14 12 10 8 7 6 7 8 11 9 12 9 8 8 12 11 10 13 14 15 15 15 12 13 14 13 13 12 11 12 7 11 11 13 11 11 10 7 7
13 13 13 12 14 12 11 9 10 9 7 5 7 10 11 12 10 9 8 8 7 7 12 14 13 13 13 14 13 15 17 15 14 13 13 11 7 11 10 11 12 13 11
11 11 13 13 13 14 12 10 12 13 12 10 8 8 9 11 12 11 9 10 8 8 10 12 13 13 15 15 14 15 16 16 14 16 13 12 14 11 9 11 11 11 10
9 9 10 10 11 11 12 13 13 13 13 12 10 9 9 7 8 9 9 8 8 8 9 11 12 15 15 15 14 12 13 15 14 18 16 13 13 12 12 11 10 10 11
7 7 8 8 9 10 11 12 12 12 12 12 11 10 9 9 9 11 11 8 10 8 11 11 12 13 15 15 15 12 15 15 15 16 17 15 13 12 12 12 12 12 11
4 5 7 7 7 7 8 10 11 12 11 11 10 10 11 11 10 9 10 11 11 12 12 12 13 13 14 14 14 13 15 16 14 13 17 16 14 14 12 13 12 12 12
4 5 6 5 6 7 8 10 11 11 11 11 10 10 10 10 10 10 11 10 11 11 11 12 13 13 13 13 13 15 16 17 17 16 17 18 17 12 12 12 12 13 12
3 5 5 4 5 7 8 10 10 11 11 11 12 11 10 10 11 11 12 12 12 12 12 12 13 13 13 13 14 16 16 18 18 18 18 19 13 18 16 13 16 14 14
3 4 4 5 6 8 9 11 12 12 12 13 14 13 13 13 14 15 15 15 15 14 13 12 12 13 13 13 14 16 17 18 18 18 19 19 18 18 14 16 13 13 12
2 3 5 7 9 10 10 12 13 13 13 13 12 13 13 13 13 14 15 15 15 16 16 16 15 14 14 13 14 15 16 18 17 19 18 19 19 20 19 15 16 14 12
3 5 7 9 11 12 11 12 12 12 13 13 12 12 13 13 13 13 13 14 15 15 16 16 16 16 14 10 13 13 15 17 18 19 19 19 20 22 22 13 16 16 13
4 7 10 11 12 12 11 10 10 11 12 12 13 12 13 14 14 15 15 15 15 15 16 16 17 16 12 15 14 11 13 16 17 18 19 19 18 18 21 22 22 19 15
6 9 11 12 10 11 10 11 12 13 13 13 13 13 14 14 13 14 15 14 15 16 16 16 17 17 17 17 17 14 12 14 16 17 18 18 13 15 16 21 23 21 20
7 9 9 9 9 9 10 12 13 14 14 15 15 15 15 15 15 15 15 15 14 14 14 15 15 16 15 18 16 19 14 14 16 16 17 17 20 18 15 15 14 16 17
7 8 7 8 10 9 11 13 14 14 14 14 15 16 16 15 15 15 15 15 14 15 14 14 16 17 15 17 15 15 15 16 17 13 16 16 18 21 15 14 14 11 4
5 7 9 10 10 11 12 13 13 14 14 15 16 17 16 16 16 16 16 14 15 15 13 15 14 16 16 17 16 20 13 16 14 16 15 14 17 23 17 13 11 9 8
6 7 8 8 10 11 11 13 14 14 15 16 16 16 15 16 16 16 14 16 16 16 15 15 13 14 15 16 21 23 15 13 14 13 14 11 20 20 23 21 12 15 14
7 8 8 9 10 10 11 13 14 15 16 15 15 15 15 13 13 16 15 15 14 15 14 14 13 11 14 18 18 23 23 22 16 15 14 14 20 26 23 15 19 14 19
8 8 9 10 10 10 11 14 15 16 16 16 16 16 16 15 14 15 15 14 12 12 12 11 12 13 12 13 22 22 25 27 19 15 19 29 25 27 23 24 17 26 11
8 8 10 11 12 12 13 14 16 16 16 17 16 14 15 15 14 12 12 11 11 11 11 12 13 13 13 12 12 14 15 22 21 21 17 20 21 20 5 5 14 6 8
8 9 10 11 13 14 14 15 15 16 15 15 14 14 12 13 14 12 12 11 11 12 13 13 13 14 14 12 23 22 17 17 21 26 14 10 4 2 3 4 5 5 6
8 9 11 13 14 14 15 15 15 15 15 14 11 11 12 11 12 12 12 14 18 21 22 24 19 13 20 24 27 29 31 31 35 16 11 6 2 4 5 5 4 5 9
Wind_Direction
332 319 318 306 285 258 251 242 236 221 213 216 220 223 226 229 231 229 234 231 228 223 217 220 225 222 220 224 225 226 227 232 230 247 259 264 259 254 250 244 242 246 246
32 22 0 340 312 285 266 246 248 236 221 222 225 230 231 234 230 225 229 231 230 227 223 221 223 223 223 223 225 227 228 231 226 236 242 258 257 245 244 236 242 242 241
34 29 23 16 359 330 291 269 247 235 227 219 224 230 240 251 243 234 230 227 230 230 227 225 224 224 226 225 223 224 222 229 226 225 218 223 237 260 232 231 239 240 236
36 32 25 22 20 9 348 323 292 258 240 228 224 227 227 230 231 234 237 228 227 230 230 230 226 226 224 227 224 221 225 221 229 222 224 232 264 278 271 195 217 225 229
39 31 25 24 25 20 20 9 345 314 284 263 251 242 247 259 271 266 265 250 237 231 234 234 230 229 228 231 225 225 225 227 224 230 214 227 233 242 251 258 249 238 231
40 39 30 28 24 23 19 20 20 30 16 334 291 278 274 278 279 279 281 273 261 247 231 237 239 236 233 233 229 225 224 223 225 225 225 212 200 217 223 242 250 250 245
43 40 34 30 27 24 19 19 24 24 13 1 339 305 281 273 268 270 265 265 256 242 234 228 233 231 230 232 228 229 228 227 224 226 227 226 230 229 217 226 244 246 240
41 50 48 41 34 30 28 25 25 22 16 11 0 342 323 305 299 290 285 279 274 270 257 230 231 239 238 235 233 230 232 228 228 227 227 229 229 226 222 219 223 246 247
32 41 54 46 39 33 30 22 20 19 15 9 5 359 352 336 318 308 299 294 288 286 282 277 262 246 243 244 237 234 237 233 230 228 227 227 233 225 227 225 216 224 242
32 58 50 44 42 34 20 16 11 11 6 2 4 1 356 351 342 333 325 317 308 303 294 284 276 266 261 254 254 246 240 239 234 231 229 227 230 228 222 224 223 224 229
53 65 56 43 24 11 6 359 359 355 353 354 349 348 347 347 347 344 341 336 324 318 312 305 295 284 276 268 256 254 252 245 245 239 236 235 230 229 225 224 223 225 222
88 67 49 6 1 353 349 348 348 347 344 339 332 330 328 330 331 330 331 332 332 329 326 318 308 303 295 286 275 267 257 252 249 247 244 237 229 233 230 222 221 223 223
19 38 11 347 337 331 340 345 346 347 344 344 335 333 334 340 335 335 332 325 324 317 315 312 307 302 296 291 281 276 272 264 258 252 250 245 238 231 227 230 222 222 225
249 307 314 335 338 339 358 348 344 344 343 336 336 332 333 331 331 326 323 320 319 318 317 313 306 301 296 290 282 278 274 274 270 262 255 251 244 242 235 226 225 224 223
272 326 332 333 331 333 348 339 336 341 343 339 340 337 335 331 329 326 322 319 318 315 313 311 309 307 303 295 293 292 288 286 283 273 265 254 250 242 238 227 228 222 219
322 333 328 325 327 340 334 332 334 331 328 331 328 331 330 329 326 324 322 319 318 316 313 311 306 303 302 308 306 287 299 295 286 280 274 263 256 248 238 230 231 224 220
320 328 329 324 332 336 329 325 330 329 333 330 328 330 328 323 319 317 315 315 314 311 309 309 309 309 311 306 302 299 304 297 288 282 278 278 265 251 246 235 234 232 223
325 329 336 341 322 317 325 329 329 328 331 326 332 330 326 323 320 318 317 316 313 312 313 309 312 309 305 303 316 316 311 302 294 290 287 282 280 268 248 241 238 232 226
346 344 332 331 328 326 333 332 329 334 329 330 331 326 326 322 321 320 321 319 319 315 313 313 309 308 309 315 317 336 327 315 304 309 298 294 281 274 260 243 237 230 190
349 340 331 324 325 340 335 331 332 331 329 335 326 324 323 320 319 320 320 317 313 312 313 311 308 310 321 325 343 339 324 318 311 313 303 302 282 272 258 245 232 197 173
347 340 320 321 333 336 338 333 334 330 333 326 324 323 322 321 320 316 314 318 316 313 310 311 319 325 323 327 331 327 325 318 314 315 311 308 300 272 259 241 223 208 153
347 339 336 342 341 342 339 331 327 331 327 323 321 319 318 317 314 313 315 308 309 308 310 316 321 319 322 322 319 322 320 327 315 304 299 297 304 301 262 244 234 178 154
340 342 336 329 333 336 336 325 325 326 323 321 319 316 313 310 311 310 306 307 305 303 316 318 319 316 319 317 318 320 326 319 317 303 295 295 295 291 273 256 164 156 158
330 329 326 325 324 331 328 322 323 322 320 315 314 311 307 309 306 310 298 303 307 315 312 320 312 313 312 314 319 324 319 315 313 309 299 292 289 279 253 151 156 150 162
317 321 317 315 318 321 320 320 318 317 312 310 309 307 307 311 306 306 302 302 307 317 315 305 306 306 304 309 314 316 314 312 305 305 291 281 268 237 122 130 127 137 163
311 308 307 310 311 311 311 311 313 315 313 308 305 304 308 310 307 303 304 306 307 303 301 298 295 296 299 309 313 314 316 315 314 311 296 272 245 230 175 163 166 169 164